Terug naar catalogus

USA 386

ActiefMilitairVLEO
NORAD 60169·PAYLOAD·🇺🇸 United States

Gelanceerd Jun 29, 2024 vanaf Vandenberg Space Force Base

Loading…

Volgende Passages (komende 24 uur)

TLE

VerouderdSource: Mike McCants

Epoch: Aug 24, 2026, 00:53 UTC

1 60169U 24121M   26236.03709943 0.00000000  00000-0  00000-0 0    09
2 60169  70.0230 216.5874 0003000 260.8088  99.1912 14.96713199    05

Volg USA 386 in realtime met AllMySat

Download on the App Store